CSS101 ZSHC-ZSQD

Flight info

Callsign CSS101
Flight time N/A
Altitude 37100
Route DSH W505 SUPAR B221 GOVNI V140 IDNIK V141 ALDAP/K0874S1100 B221 IDVEL IDV81A
Aircraft B738/M-SDE2E3FGHIRWXY/LB1

Departure

Time 2026-04-30 15:02
Airport Hangzhou Xiaoshan International Airport (ZSHC)

Arrival

Time N/A
Airport Qingdao Jiaodong International Airport (ZSQD)
Time Latitude Longitude Altitude Speed Heading
2026-04-30 14:49 30.23472 120.41084 30 ft 0 kts 335°
2026-04-30 14:55 30.23471 120.41084 31 ft 1 kts 335°
2026-04-30 14:55 30.23431 120.41119 30 ft 4 kts 292°
2026-04-30 14:56 30.23436 120.41171 27 ft 4 kts 225°
2026-04-30 14:56 30.23453 120.41192 31 ft 0 kts 242°
2026-04-30 14:58 30.23443 120.41171 28 ft 7 kts 242°
2026-04-30 14:59 30.23416 120.41041 25 ft 8 kts 314°
2026-04-30 15:00 30.23672 120.40931 30 ft 17 kts 335°
2026-04-30 15:00 30.23722 120.40903 32 ft 8 kts 334°
2026-04-30 15:01 30.23868 120.40938 33 ft 18 kts 63°
2026-04-30 15:01 30.23921 120.41050 33 ft 42 kts 60°
2026-04-30 15:01 30.24927 120.43363 202 ft 211 kts 64°
2026-04-30 15:02 30.25587 120.44933 1026 ft 224 kts 64°
2026-04-30 15:02 30.26307 120.46620 1858 ft 246 kts 63°
2026-04-30 15:03 30.28894 120.52848 4652 ft 307 kts 63°
2026-04-30 15:03 30.31045 120.57013 7566 ft 289 kts 56°
2026-04-30 15:04 30.32127 120.60485 9110 ft 302 kts 87°
2026-04-30 15:04 30.28197 120.66097 11099 ft 325 kts 156°
2026-04-30 15:05 30.21947 120.69591 13171 ft 339 kts 157°
2026-04-30 15:06 30.18121 120.72855 14456 ft 356 kts 125°
2026-04-30 15:06 30.15510 120.77762 15674 ft 366 kts 121°
2026-04-30 15:07 30.12363 120.82371 16807 ft 369 kts 152°
2026-04-30 15:07 30.07516 120.84820 17115 ft 407 kts 148°
2026-04-30 15:08 30.04393 120.90493 17394 ft 445 kts 98°
2026-04-30 15:08 30.07450 121.00094 17754 ft 441 kts 30°
2026-04-30 15:09 30.12686 121.03656 18545 ft 445 kts 28°
2026-04-30 15:09 30.17232 121.08774 19286 ft 466 kts 44°
2026-04-30 15:10 30.23944 121.19460 20475 ft 480 kts 46°
2026-04-30 15:11 30.40015 121.45030 23061 ft 496 kts 41°
2026-04-30 15:11 30.50402 121.54616 24456 ft 466 kts 20°
2026-04-30 15:12 30.64420 121.64696 26298 ft 470 kts 21°
2026-04-30 15:13 30.69920 121.68725 27215 ft 465 kts 21°
2026-04-30 15:14 30.80991 121.76816 28480 ft 469 kts 21°
2026-04-30 15:14 31.04470 121.94046 31876 ft 460 kts 21°
2026-04-30 15:16 31.48290 122.26498 35576 ft 473 kts 22°
2026-04-30 15:17 31.69797 122.33848 37233 ft 391 kts 328°
2026-04-30 15:18 31.96475 122.21168 37206 ft 424 kts 332°
2026-04-30 15:19 32.03720 122.17970 37200 ft 414 kts 331°